Regional Weather Roundup
Issued by NWS

Home | Current Version | Previous Version | Graphics & Text | Print | Product List | Glossary On
Versions: 1 2 3 4 5 6 7 8 9 10 11 12 13 14 15 16 17 18 19 20 21 22 23 24 25 26 27 28 29 30 31 32 33 34 35 36 37 38 39 40 41 42 43 44 45 46 47 48 49 50
000
ASUS43 KDMX 271807
RWRIA

WEATHER ROUNDUP FOR IOWA
NATIONAL WEATHER SERVICE DES MOINES IA
100 PM CDT MON JUL 27 2015

NOTE: "FAIR" INDICATES FEW OR NO CLOUDS BELOW 12,000 FEET WITH NO
SIGNIFICANT WEATHER AND/OR OBSTRUCTIONS TO VISIBILITY.

* - THESE STATIONS ARE NOT NWS STATIONS...THUS NOT UNDER NWS
QUALITY CONTROL.  THEY ALSO DO NOT REPORT WEATHER SUCH
AS PRECIPITATION OR FOG.

IAZ001>003-012>014-020>022-031>034-043>046-271900-
   NORTHWEST IOWA

CITY           SKY/WX    TMP DP  RH WIND       PRES   REMARKS
CARROLL *      CLOUDY    68  66  94 E13G20    29.96R FOG
CHEROKEE *     PTSUNNY   82  71  68 SE14G22   29.88F HX  87
DENISON *      SUNNY     73  68  83 E13G18    29.92R
LE MARS *      SUNNY     82  70  65 S14G22    29.89S HX  86
ORANGE CITY *  SUNNY     81  68  65 S13       29.88F HX  83
SHELDON *      SUNNY     81  68  65 SE7       29.87F HX  83
SIOUX CITY     PTSUNNY   84  72  67 SE17      29.87S HX  89
6HR MIN TEMP:  72; 6HR MAX TEMP:  84; 6HR PCP: TRACE;

SPENCER        CLOUDY    76  67  73 E22       29.87F
6HR MIN TEMP:  70; 6HR MAX TEMP:  80; 6HR PCP:  0.40;

STORM LAKE *   SUNNY     75  68  78 E17       29.93F
$$

IAZ055>058-069>071-079>083-090>094-271900-
   SOUTHWEST IOWA

CITY           SKY/WX    TMP DP  RH WIND       PRES   REMARKS
ATLANTIC *     DRIZZLE   73  72  94 E8        29.94R
AUDUBON *      LGT RAIN  68  66  94 E8G17     29.97S
CLARINDA *     MOSUNNY   84  79  84 CALM      29.93S HX  96
COUNCIL BLFS * MOSUNNY   82  79  89 S10       29.93S HX  93
CRESTON *      PTSUNNY   75  72  88 NE13G20   29.95R
HARLAN  *      PTSUNNY   72  72 100 E8        29.99R
LAMONI         PTSUNNY   89  80  74 SE9       29.93S HX 106
6HR MIN TEMP:  77; 6HR MAX TEMP:  90;

RED OAK *      MOSUNNY   82  79  89 E7        29.91F HX  93
SHENANDOAH *   SUNNY     81  79  94 S5        29.93S HX  89
$$

IAZ047>049-059>061-072>074-084-271900-
   CENTRAL IOWA

CITY           SKY/WX    TMP DP  RH WIND       PRES   REMARKS
AMES           TSTM      73  69  87 NW18      30.05R FOG
6HR MIN TEMP:  72; 6HR MAX TEMP:  80; 6HR PCP:  0.05;

ANKENY *       PTSUNNY   75  70  83 W26G45    29.97S
CHARITON *     CLOUDY    84  77  79 E10       29.96R HX  94
DES MOINES     TSTM      72  68  87 NW20G31   30.00R VSB 1/2
6HR MIN TEMP:  72; 6HR MAX TEMP:  86; 6HR PCP:  0.16;

GRINNELL*      CLOUDY    82  73  74 E8        30.01R HX  88
KNOXVILLE *    MOSUNNY   84  75  74 E10       29.95S HX  92
MARSHALLTOWN   CLOUDY    78  74  87 E5        30.00R HX  81
6HR MIN TEMP:  72; 6HR MAX TEMP:  79;

PELLA *        CLOUDY    83  78  86 E6        29.98S HX  92
PERRY *        LGT RAIN  70  68  94 NE10      29.99F
$$

IAZ004>006-015-016-023>025-035-036-271900-
   NORTH CENTRAL IOWA

CITY           SKY/WX    TMP DP  RH WIND       PRES   REMARKS
ALGONA *       MOSUNNY   75  73  94 S16       29.96R
CLARION *      CLOUDY    75  73  94 SE10      29.99R FOG
ESTHERVILLE    CLOUDY    74  69  85 SE9       29.94R
6HR MIN TEMP:  71; 6HR MAX TEMP:  76; 6HR PCP:  0.01;

FORT DODGE *   CLOUDY    70  68  94 S9        30.02R
MASON CITY     CLOUDY    75  73  93 SE14      30.00F
6HR MIN TEMP:  71; 6HR MAX TEMP:  76;

FOREST CITY *  PTSUNNY   75  73  94 SE16G22   29.96F
IOWA FALLS *   DRIZZLE   75  72  91 SE7       30.02R
$$

IAZ007>011-017>019-026>030-037>042-050>054-066-271900-
   NORTHEAST IOWA

CITY           SKY/WX    TMP DP  RH WIND       PRES   REMARKS
CEDAR RAPIDS   PTSUNNY   82  75  79 VRB5      29.99R HX  89
6HR MIN TEMP:  68; 6HR MAX TEMP:  82;

CHARLES CITY * MOSUNNY   81  75  83 SE8       30.01F HX  86
CLINTON *      MOSUNNY   84  72  65 SE10      30.02R HX  89
DUBUQUE        MOSUNNY   83  69  62 SE7       30.02R HX  86
6HR MIN TEMP:  68; 6HR MAX TEMP:  83;

MONTICELLO *   MOSUNNY   82  72  69 MISG      30.00F HX  87
OELWEIN *      MOSUNNY   81  72  74 SE6       30.02S HX  84
WATERLOO       CLOUDY    81  72  74 S6        29.99S HX  85
6HR MIN TEMP:  70; 6HR MAX TEMP:  82;

$$

IAZ064-065-067-068-078-271900-
   EAST CENTRAL IOWA

CITY           SKY/WX    TMP DP  RH WIND       PRES   REMARKS
DAVENPORT      MOSUNNY   83  72  69 E10       30.00R HX  88
6HR MIN TEMP:  69; 6HR MAX TEMP:  85;

IOWA CITY      PTSUNNY   84  73  69 SE7       29.99R HX  90
6HR MIN TEMP:  70; 6HR MAX TEMP:  84;

MT. PLEASANT * MOSUNNY   89  69  51 SE6       29.97S HX  92
MUSCATINE *    SUNNY     86  72  62 SE8       29.97S HX  92
QUAD CITIES    MOSUNNY   84  71  65 E10       29.98S HX  89
6HR MIN TEMP:  70; 6HR MAX TEMP:  85;

$$

IAZ062-063-075>077-085>089-095>099-271900-
   SOUTHEAST IOWA

CITY           SKY/WX    TMP DP  RH WIND       PRES   REMARKS
BURLINGTON     PTSUNNY   85  74  69 E8        29.97R HX  92
6HR MIN TEMP:  71; 6HR MAX TEMP:  86;

FAIRFIELD *    MOSUNNY   86  75  70 SE6       29.97R HX  95
FORT MADISON * SUNNY     84  79  84 SE5       29.97S HX  96
KEOKUK *       MOSUNNY   86  77  74 SE7       29.96R HX  97
OSKALOOSA *      N/A     85  76  74 E7        29.98R HX  95
CENTERVILLE *  MOSUNNY   84  79  84 E7        29.97S HX  96
OTTUMWA        MOSUNNY   86  76  71 E8        29.95R HX  96
6HR MIN TEMP:  73; 6HR MAX TEMP:  86;

WASHINGTON *   MOSUNNY   86  75  70 E7        29.99S HX  95
$$

ABBREVIATIONS USED IN REMARKS
   TC - TEMPERATURES IN CELSIUS
  WCI - WIND CHILL INDEX
   HX - HEAT INDEX
  VSB - VISIBILITY
$$




USA.gov is the U.S. government's official web portal to all federal, state and local government web resources and services.